Lid_Strength_Index
11 10 10 11 10 9 11 11 13 11 12 10 10 9 8 7 6 8 8 9 9 10 10 9 9 7 6 6 6 6 6 7 7 6 6 6 6 6 6 5 6 6 6 7
11 9 9 10 10 9 9 10 11 11 12 8 8 7 7 7 8 8 8 8 9 10 10 9 8 7 6 6 6 6 6 6 6 6 6 6 7 6 6 6 6 6 6 7
14 10 10 13 11 10 10 9 10 13 10 8 8 8 8 8 7 8 8 8 9 10 10 9 7 7 7 6 6 6 6 6 6 6 6 6 6 6 6 7 7 7 7 7
14 13 17 11 8 8 9 9 8 9 9 8 8 7 6 6 7 7 7 8 8 9 9 8 7 7 6 6 6 6 6 6 5 5 6 6 6 6 6 7 7 7 7 7
15 16 13 10 9 9 10 10 8 8 8 8 7 7 8 5 6 6 7 7 8 8 8 8 7 7 5 6 6 6 6 6 5 4 5 6 6 5 6 7 8 8 7 6
15 17 18 12 8 6 8 12 7 7 7 7 8 11 9 6 6 7 7 7 8 8 8 8 8 7 6 6 6 6 4 4 5 5 5 7 5 6 5 7 7 7 7 7
15 16 13 9 7 6 13 12 8 7 8 8 9 7 7 7 7 7 7 8 8 8 8 8 7 6 6 7 7 5 4 4 5 6 6 7 5 5 6 7 6 7 7 7
14 16 16 7 8 10 9 8 7 7 6 6 6 6 6 7 8 8 8 8 8 8 8 8 6 6 6 7 5 4 4 5 6 5 5 6 7 7 6 6 6 9 9 8
12 12 9 7 8 7 6 7 7 7 6 6 6 6 6 8 8 8 8 8 8 8 8 6 5 5 7 7 6 6 6 6 7 7 7 6 7 7 8 8 9 10 9 10
11 10 9 8 7 6 6 6 6 5 5 5 6 6 8 8 8 8 8 8 7 7 6 6 5 6 6 6 5 6 8 7 8 8 8 7 7 6 7 7 8 9 9 10
10 8 7 7 6 7 6 5 5 5 5 5 6 6 7 8 8 7 7 7 6 6 6 6 5 6 6 5 6 7 7 7 8 8 8 8 7 6 6 6 7 9 9 9
12 8 8 8 6 6 5 5 5 5 6 5 5 6 6 7 7 7 6 5 6 6 6 5 5 6 5 5 6 7 9 8 8 8 9 6 7 6 7 7 8 9 9 8
8 6 6 6 5 5 6 6 5 5 5 6 5 5 6 7 7 7 5 5 5 5 5 5 6 5 5 5 6 7 8 8 8 8 8 7 7 7 8 8 8 8 9 9
5 6 7 6 7 5 5 5 5 5 4 4 5 6 6 6 7 6 5 5 5 5 5 5 5 5 4 5 6 6 7 8 9 8 7 7 7 7 7 7 7 7 8 8
5 5 5 6 6 6 5 5 5 5 5 6 5 6 5 6 6 6 5 4 4 4 5 5 5 4 3 4 5 6 6 7 8 8 7 7 7 7 7 6 6 6 7 8
5 5 6 6 6 6 6 5 6 6 6 6 6 5 5 5 5 5 5 5 5 6 5 5 5 3 4 5 6 5 5 8 10 9 7 7 6 6 6 6 6 6 7 7
6 7 6 7 6 6 6 5 6 6 6 6 6 5 5 5 6 6 5 5 5 5 5 5 4 3 4 5 5 5 5 8 11 8 7 6 6 6 6 7 7 8 8 9
5 5 5 5 6 6 5 5 5 5 5 5 4 5 5 5 6 5 6 6 6 6 6 6 5 4 4 4 4 7 8 8 7 7 6 6 6 6 6 6 7 9 10 10
5 5 5 5 5 5 5 6 5 4 3 4 4 5 5 5 5 6 6 7 7 7 6 7 7 6 4 5 6 7 7 7 6 6 5 8 6 5 6 6 8 7 9 8
4 5 5 5 5 5 6 5 3 3 4 4 4 5 5 5 5 6 6 7 7 6 6 7 7 6 6 7 9 8 7 6 6 5 6 6 5 6 8 9 8 9 9 9
5 5 4 4 5 5 4 3 3 4 4 4 5 5 5 5 5 6 7 7 5 6 6 8 7 6 5 7 7 7 7 7 8 6 5 5 6 7 7 8 9 9 9 9
5 5 5 5 5 5 4 4 3 3 3 4 4 4 5 5 5 6 6 6 5 12 7 7 7 10 10 13 8 8 6 5 7 5 6 6 7 8 9 9 9 8 8 8
5 5 5 5 5 4 4 3 3 3 3 4 4 5 5 5 5 6 6 4 5 9 6 7 12 13 13 8 7 6 6 6 6 7 7 6 7 7 7 7 7 7 6 6
5 6 5 4 4 4 5 5 3 3 3 3 4 4 4 5 5 4 4 9 12 10 8 11 12 13 13 8 7 7 6 5 6 6 7 10 7 6 5 5 5 5 6 6
5 5 4 4 5 5 5 5 4 3 3 4 4 4 3 4 4 4 5 7 13 9 9 14 13 12 8 7 5 6 5 5 6 7 7 7 6 4 4 5 5 5 5 5
5 4 5 5 4 4 4 4 4 4 3 4 4 3 3 3 4 5 5 7 7 10 8 9 9 9 8 6 5 4 5 6 6 6 6 5 4 4 5 5 4 4 5 6
5 6 4 4 4 4 3 4 4 4 3 3 4 4 3 4 5 5 8 6 7 7 5 5 6 7 6 5 5 5 5 5 6 3 2 2 3 3 3 3 4 5 6 6